Change the Weather History Date:

Sunday, July 14, 2013

  Actual Average (KLTS) Record (KLTS)
Temperature  
Mean Temperature 77 °F -  
Max Temperature 86 °F 95 °F 107 °F (2003)
Min Temperature 66 °F 70 °F 65 °F (2007)
Cooling Degree Days 12    
Growing Degree Days 27 (Base 50)    
Moisture  
Dew Point 60 °F    
Average Humidity 60    
Maximum Humidity 90    
Minimum Humidity 41    
Precipitation  
Precipitation 0.30 in - - ()
Sea Level Pressure  
Sea Level Pressure 30.01 in    
Wind  
Wind Speed 15 mph (SE)    
Max Wind Speed 30 mph    
Max Gust Speed 39 mph    
Visibility 10 miles    
Events Rain    
Averages and records for this station are not official NWS values.
T = Trace of Precipitation, MM = Missing Value Source: NWS Daily Summary

Daily Weather History Graph

Daily Weather History Graph

Search for Another Location

Airport or City:

Trip Planner

Search our weather history database for the weather conditions in past years. The results will help you decide how hot, cold, wet, or windy it might be!

Date:

Astronomy

Jul. 14, 2013 Rise Set
Actual Time 6:35 AM CDT 8:51 PM CDT
Civil Twilight 6:06 AM CDT 9:20 PM CDT
Nautical Twilight 5:30 AM CDT 9:55 PM CDT
Astronomical Twilight 4:52 AM CDT 10:33 PM CDT
Moon 12:35 PM CDT (7/14) No Moon Set
Length of Visible Light 15h 13m
Length of Day
14h 16m
Waxing Crescent, 35% of the Moon is Illuminated
Jul 14
Waxing Crescent
Jul 15
First Quarter
Jul 22
Full
Jul 29
Last Quarter
Aug 6
New

Hourly Weather History & Observations

Time (CDT) Temp. Heat Index Dew Point Humidity Pressure Visibility Wind Dir Wind Speed Gust Speed Precip Events Conditions
12:15 AM 88.0 °F 88.1 °F 61.3 °F 41% 29.96 in 10.0 mi SE 13.8 mph - N/A   Clear
12:35 AM 87.4 °F 87.7 °F 61.7 °F 42% 29.95 in 10.0 mi SE 15.0 mph - N/A   Clear
12:55 AM 87.1 °F 87.2 °F 61.7 °F 42% 29.96 in 10.0 mi SE 15.0 mph - N/A   Clear
1:15 AM 86.2 °F 86.6 °F 61.7 °F 44% 29.95 in 10.0 mi SE 12.7 mph - N/A   Clear
1:35 AM 86.0 °F 86.3 °F 61.7 °F 44% 29.95 in 10.0 mi SE 11.5 mph - N/A   Clear
1:55 AM 85.1 °F 85.4 °F 61.7 °F 45% 29.94 in 10.0 mi SE 12.7 mph - N/A   Clear
2:15 AM 84.6 °F 84.8 °F 61.3 °F 45% 29.92 in 10.0 mi SSE 11.5 mph - N/A   Clear
2:35 AM 83.8 °F 84.1 °F 61.2 °F 46% 29.93 in 10.0 mi SE 10.4 mph - N/A   Clear
2:55 AM 83.7 °F 83.9 °F 61.0 °F 46% 29.93 in 10.0 mi SE 12.7 mph - N/A   Clear
3:15 AM 82.9 °F 83.5 °F 61.2 °F 48% 29.93 in 10.0 mi SE 11.5 mph - N/A   Clear
3:35 AM 82.9 °F 83.3 °F 61.0 °F 47% 29.93 in 10.0 mi SE 11.5 mph - N/A   Clear
3:55 AM 82.9 °F 83.3 °F 61.0 °F 47% 29.92 in 10.0 mi SE 10.4 mph - N/A   Clear
4:15 AM 82.6 °F 83.1 °F 60.8 °F 48% 29.93 in 10.0 mi SE 10.4 mph - N/A   Clear
4:35 AM 81.5 °F 82.1 °F 60.8 °F 49% 29.93 in 10.0 mi SE 9.2 mph - N/A   Clear
4:55 AM 81.1 °F 81.9 °F 60.8 °F 50% 29.93 in 10.0 mi ESE 9.2 mph - N/A   Clear
5:15 AM 80.8 °F 81.4 °F 60.3 °F 49% 29.93 in 10.0 mi ESE 10.4 mph - N/A   Clear
5:35 AM 80.6 °F 81.2 °F 59.7 °F 49% 29.94 in 10.0 mi ESE 15.0 mph - N/A   Clear
5:55 AM 80.4 °F 81.0 °F 59.0 °F 48% 29.94 in 10.0 mi ESE 17.3 mph - N/A   Clear
6:15 AM 79.3 °F - 59.2 °F 50% 29.93 in 10.0 mi ESE 16.1 mph - N/A   Clear
6:35 AM 79.0 °F - 58.6 °F 50% 29.93 in 10.0 mi SE 16.1 mph - N/A   Clear
6:55 AM 78.8 °F - 56.5 °F 46% 29.94 in 10.0 mi SE 20.7 mph 26.5 mph N/A   Clear
7:15 AM 77.9 °F - 55.8 °F 46% 29.95 in 10.0 mi ESE 20.7 mph 25.3 mph N/A   Clear
7:35 AM 77.7 °F - 55.4 °F 46% 29.96 in 10.0 mi ESE 23.0 mph 27.6 mph N/A   Clear
7:55 AM 77.5 °F - 52.7 °F 42% 29.96 in 10.0 mi SE 23.0 mph 27.6 mph N/A   Clear
8:15 AM 78.1 °F - 56.1 °F 47% 29.97 in 10.0 mi SE 20.7 mph 26.5 mph N/A   Clear
8:35 AM 77.4 °F - 58.5 °F 52% 29.99 in 10.0 mi ESE 26.5 mph 31.1 mph N/A   Clear
8:55 AM 76.5 °F - 58.8 °F 54% 30.02 in 10.0 mi ESE 26.5 mph 32.2 mph N/A   Clear
9:15 AM 75.9 °F - 58.8 °F 55% 30.04 in 10.0 mi East 18.4 mph 29.9 mph N/A   Clear
9:35 AM 75.6 °F - 56.5 °F 51% 30.05 in 10.0 mi ESE 24.2 mph 28.8 mph N/A   Clear
9:55 AM 77.0 °F - 55.9 °F 48% 30.05 in 10.0 mi ESE 27.6 mph 33.4 mph N/A   Clear
10:15 AM 77.2 °F - 59.4 °F 54% 30.04 in 10.0 mi ESE 26.5 mph 35.7 mph N/A   Clear
10:35 AM 79.0 °F - 61.0 °F 54% 30.04 in 10.0 mi SE 25.3 mph 39.1 mph N/A   Clear
10:55 AM 78.8 °F - 59.9 °F 52% 30.04 in 10.0 mi ESE 26.5 mph 36.8 mph N/A   Clear
11:15 AM 79.5 °F - 59.4 °F 50% 30.03 in 10.0 mi SE 29.9 mph 36.8 mph N/A   Clear
11:35 AM 78.3 °F - 58.5 °F 50% 30.03 in 10.0 mi SE 26.5 mph 32.2 mph N/A   Clear
11:55 AM 80.1 °F 80.6 °F 58.1 °F 47% 30.02 in 10.0 mi SE 20.7 mph 31.1 mph N/A   Clear
12:15 PM 80.2 °F 80.5 °F 56.8 °F 45% 30.02 in 10.0 mi SE 24.2 mph 29.9 mph N/A   Clear
12:35 PM 80.4 °F 80.6 °F 56.5 °F 44% 30.02 in 10.0 mi SE 24.2 mph - N/A   Clear
12:55 PM 79.7 °F - 56.8 °F 45% 30.03 in 10.0 mi SE 20.7 mph 29.9 mph N/A   Clear
1:15 PM 79.7 °F - 57.2 °F 46% 30.02 in 10.0 mi SE 23.0 mph 28.8 mph N/A   Clear
1:35 PM 80.1 °F 80.6 °F 58.1 °F 47% 30.03 in 10.0 mi ESE 21.9 mph 26.5 mph N/A   Clear
1:55 PM 79.5 °F - 58.3 °F 48% 30.05 in 10.0 mi SE 20.7 mph 27.6 mph N/A   Clear
2:15 PM 80.2 °F 80.7 °F 58.5 °F 47% 30.05 in 10.0 mi SE 18.4 mph - N/A   Scattered Clouds
2:35 PM 79.5 °F - 57.7 °F 47% 30.04 in 10.0 mi SSE 19.6 mph 26.5 mph N/A   Scattered Clouds
2:55 PM 78.8 °F - 58.1 °F 49% 30.04 in 10.0 mi SE 24.2 mph 27.6 mph N/A   Clear
3:15 PM 77.2 °F - 58.3 °F 52% 30.04 in 10.0 mi SE 17.3 mph 25.3 mph N/A   Clear
3:35 PM 76.5 °F - 58.3 °F 53% 30.04 in 10.0 mi SE 19.6 mph 24.2 mph N/A   Clear
3:55 PM 74.8 °F - 58.3 °F 56% 30.04 in 10.0 mi ESE 19.6 mph - N/A   Clear
4:15 PM 73.6 °F - 58.5 °F 59% 30.05 in 10.0 mi ESE 17.3 mph 23.0 mph N/A   Mostly Cloudy
4:35 PM 68.9 °F - 62.2 °F 79% 30.06 in 5.0 mi ESE 12.7 mph - 0.06 in Rain Heavy Rain
4:55 PM 68.4 °F - 63.0 °F 83% 30.07 in 10.0 mi ESE 11.5 mph - 0.08 in Rain Light Rain
5:15 PM 67.1 °F - 62.4 °F 85% 30.06 in 7.0 mi ESE 9.2 mph - 0.03 in Rain Light Rain
5:35 PM 66.7 °F - 62.6 °F 86% 30.04 in 10.0 mi SE 8.1 mph - 0.04 in Rain Rain
5:55 PM 66.6 °F - 61.9 °F 85% 30.05 in 10.0 mi South 3.5 mph - 0.05 in Rain Light Rain
6:15 PM 66.6 °F - 61.9 °F 85% 30.06 in 5.0 mi Calm Calm - 0.02 in Rain Rain
6:35 PM 66.6 °F - 62.8 °F 88% 30.02 in 5.0 mi WSW 12.7 mph - 0.08 in Rain Rain
6:55 PM 66.2 °F - 63.0 °F 89% 30.02 in 7.0 mi WSW 10.4 mph - 0.10 in Rain Light Rain
7:15 PM 66.4 °F - 63.1 °F 89% 30.02 in 10.0 mi WSW 8.1 mph - 0.02 in Rain Rain
7:35 PM 66.2 °F - 63.1 °F 90% 30.01 in 10.0 mi WSW 4.6 mph - 0.04 in Rain Rain
7:55 PM 66.2 °F - 62.6 °F 88% 30.04 in 10.0 mi North 3.5 mph - 0.06 in Rain Rain
8:15 PM 66.0 °F - 62.1 °F 87% 30.04 in 10.0 mi ENE 4.6 mph - 0.01 in Rain Rain
8:35 PM 66.2 °F - 62.6 °F 88% 30.04 in 10.0 mi East 3.5 mph - 0.01 in Rain Rain
8:55 PM 66.2 °F - 62.6 °F 88% 30.05 in 10.0 mi NE 3.5 mph - 0.01 in Rain Light Rain
9:15 PM 66.4 °F - 61.5 °F 84% 30.06 in 10.0 mi Calm Calm - N/A   Overcast
9:35 PM 66.6 °F - 61.7 °F 84% 30.07 in 10.0 mi NW 3.5 mph - N/A   Overcast
9:55 PM 67.1 °F - 62.6 °F 85% 30.07 in 10.0 mi NW 4.6 mph - N/A   Overcast
10:15 PM 66.7 °F - 62.6 °F 86% 30.08 in 10.0 mi North 3.5 mph - N/A   Overcast
10:35 PM 66.6 °F - 62.6 °F 87% 30.09 in 7.0 mi North 4.6 mph - N/A Rain Light Rain
10:55 PM 66.7 °F - 63.0 °F 88% 30.09 in 10.0 mi NNW 4.6 mph - N/A   Overcast
11:15 PM 66.6 °F - 63.3 °F 89% 30.10 in 10.0 mi North 4.6 mph - N/A   Overcast
11:35 PM 66.6 °F - 63.1 °F 89% 30.10 in 10.0 mi NNW 5.8 mph - N/A   Overcast
11:55 PM 66.6 °F - 63.0 °F 88% 30.11 in 10.0 mi North 4.6 mph - N/A   Overcast